SBONWEB Weather Reports


Display with metric or nautical units.
time (UTC)temp
F
wind
direction
speed
MPH
gust
MPH
rain 1hr
in
rain 24hr
in
rain mn
in
humidity
%
barometer
mb
20260503041116 54 219 1.0 2.0 0.00 0.00 0.00 70 1019.5
20260503040218 55 237 2.0 3.0 0.00 0.00 0.00 70 1019.5
20260503035617 55 349 4.0 6.0 0.00 0.00 0.00 69 1019.4
20260503034716 55 9 5.0 8.0 0.00 0.00 0.00 68 1019.4
20260503033818 55 5 4.0 8.0 0.00 0.00 0.00 69 1019.4
20260503032703 55 6 3.0 8.0 0.00 0.00 0.00 69 1019.4
20260503031803 54 3 2.0 5.0 0.00 0.00 0.00 71 1019.4
20260503030904 53 4 2.0 5.0 0.00 0.00 0.00 72 1019.4
20260503030003 53 357 1.0 3.0 0.00 0.00 0.00 72 1019.6
20260503025403 53 358 1.0 3.0 0.00 0.00 0.00 72 1019.6
20260503024503 54 298 1.0 2.0 0.00 0.00 0.00 71 1019.6
20260503023603 54 338 1.0 3.0 0.00 0.00 0.00 71 1019.7
20260503022919 54 21 2.0 4.0 0.00 0.00 0.00 70 1019.6
20260503021803 55 19 3.0 8.0 0.00 0.00 0.00 69 1019.7
20260503020903 55 2 2.0 5.0 0.00 0.00 0.00 68 1019.8
20260503020004 56 339 4.0 7.0 0.00 0.00 0.00 68 1019.8
20260503015403 56 1 4.0 8.0 0.00 0.00 0.00 67 1019.8
20260503014503 56 358 4.0 8.0 0.00 0.00 0.00 67 1019.8
20260503013604 56 357 4.0 9.0 0.00 0.00 0.00 67 1019.9
20260503012918 56 1 4.0 8.0 0.00 0.00 0.00 68 1019.8
20260503011803 54 360 2.0 7.0 0.00 0.00 0.00 70 1019.8
20260503010903 54 330 2.0 7.0 0.00 0.00 0.00 71 1020.0
20260503010003 54 322 2.0 5.0 0.00 0.00 0.00 71 1020.1
20260503005403 54 341 2.0 7.0 0.00 0.00 0.00 71 1020.1
20260503004717 54 346 2.0 7.0 0.00 0.00 0.00 71 1020.3
20260503003817 54 295 2.0 4.0 0.00 0.00 0.00 70 1020.3
20260503002704 55 314 1.0 4.0 0.00 0.00 0.00 70 1020.4
20260503002017 55 283 1.0 3.0 0.00 0.00 0.00 69 1020.5
20260503001117 55 249 1.0 2.0 0.00 0.00 0.00 70 1020.6
20260503000003 55 247 2.0 2.0 0.00 0.00 0.00 69 1020.7
20260502235403 54 0 0.0 0.0 0.00 0.00 0.00 69 1020.8
20260502234503 54 0 0.0 0.0 0.00 0.00 0.00 69 1020.9
20260502233603 55 0 0.0 0.0 0.00 0.00 0.00 69 1020.9
20260502232703 55 0 0.0 0.0 0.00 0.00 0.00 69 1020.9
20260502231803 54 0 0.0 0.0 0.00 0.00 0.00 68 1021.0
20260502231116 54 0 0.0 0.0 0.00 0.00 0.00 68 1021.0
20260502230003 54 0 0.0 0.0 0.00 0.00 0.00 68 1021.1
20260502225403 54 0 0.0 0.0 0.00 0.00 0.00 68 1021.1
20260502224503 54 0 0.0 0.0 0.00 0.00 0.00 68 1021.1
20260502223818 54 0 0.0 0.0 0.00 0.00 0.00 68 1021.2
20260502222917 54 0 0.0 0.0 0.00 0.00 0.00 67 1021.2
20260502221803 55 0 0.0 0.0 0.00 0.00 0.00 67 1021.1
20260502220903 55 224 2.0 2.0 0.00 0.00 0.00 67 1021.2
20260502220003 54 0 0.0 0.0 0.00 0.00 0.00 66 1021.2
20260502215403 54 0 0.0 0.0 0.00 0.00 0.00 67 1021.2
20260502214503 54 0 0.0 0.0 0.00 0.00 0.00 67 1021.2
20260502213818 55 0 0.0 0.0 0.00 0.00 0.00 67 1021.1
20260502212917 55 0 0.0 0.0 0.00 0.00 0.00 67 1021.1
20260502211803 55 0 0.0 0.0 0.00 0.00 0.00 66 1021.1
20260502210908 56 0 0.0 0.0 0.00 0.00 0.00 66 1021.2
20260502210003 56 0 0.0 0.0 0.00 0.00 0.00 65 1021.2
20260502205616 56 0 0.0 0.0 0.00 0.00 0.00 65 1021.4
20260502204503 56 207 1.0 2.0 0.00 0.00 0.00 65 1021.2
20260502203603 56 207 0.0 2.0 0.00 0.00 0.00 65 1021.3
20260502202703 57 0 0.0 0.0 0.00 0.00 0.00 64 1021.4
20260502202018 57 0 0.0 0.0 0.00 0.00 0.00 63 1021.3
20260502200903 57 194 1.0 1.0 0.00 0.00 0.00 62 1021.2
20260502200217 57 194 1.0 2.0 0.00 0.00 0.00 62 1021.2
20260502195403 58 194 1.0 3.0 0.00 0.00 0.00 61 1021.1
20260502194503 58 194 0.0 2.0 0.00 0.00 0.00 62 1021.1
20260502193817 58 0 0.0 0.0 0.00 0.00 0.00 62 1021.0
20260502192703 59 0 0.0 0.0 0.00 0.00 0.00 63 1021.0
20260502191803 59 0 0.0 0.0 0.00 0.00 0.00 61 1021.0
20260502190903 60 0 0.0 0.0 0.00 0.00 0.00 60 1020.9
20260502190004 60 0 0.0 0.0 0.00 0.00 0.00 60 1020.8
20260502185403 61 0 0.0 0.0 0.00 0.00 0.00 60 1020.8
20260502184503 62 0 0.0 0.0 0.00 0.00 0.00 58 1020.8
20260502183603 63 193 1.0 2.0 0.00 0.00 0.00 55 1020.8
20260502182703 63 189 1.0 3.0 0.00 0.00 0.00 51 1020.8
20260502181804 64 178 1.0 3.0 0.00 0.00 0.00 52 1020.7
20260502180903 66 178 0.0 2.0 0.00 0.00 0.00 49 1020.6
20260502170218 71 147 2.0 5.0 0.00 0.00 0.00 39 1020.4
20260502163818 71 146 2.0 5.0 0.00 0.00 0.00 41 1020.7
20260502162703 71 136 2.0 5.0 0.00 0.00 0.00 40 1020.7
20260502161803 71 109 2.0 7.0 0.00 0.00 0.00 39 1020.8
20260502160903 70 126 2.0 6.0 0.00 0.00 0.00 39 1020.9
20260502151803 71 111 2.0 8.0 0.00 0.00 0.00 39 1021.4
20260502150903 71 127 3.0 4.0 0.00 0.00 0.00 39 1021.4
20260502123603 68 112 4.0 10.0 0.00 0.00 0.00 44 1023.6
20260502122703 68 134 3.0 8.0 0.00 0.00 0.00 44 1023.7
20260502121803 68 88 2.0 5.0 0.00 0.00 0.00 43 1023.8
20260502121116 68 121 4.0 9.0 0.00 0.00 0.00 42 1023.9
20260502115403 68 139 4.0 9.0 0.00 0.00 0.00 43 1024.1
20260502114504 67 109 5.0 9.0 0.00 0.00 0.00 45 1024.2
20260502113603 67 122 4.0 8.0 0.00 0.00 0.00 44 1024.4
20260502112703 68 141 3.0 11.0 0.00 0.00 0.00 45 1024.5
20260502111803 67 185 3.0 7.0 0.00 0.00 0.00 44 1024.7
20260502110903 67 173 4.0 10.0 0.00 0.00 0.00 45 1024.8
20260502110003 66 126 4.0 11.0 0.00 0.00 0.00 49 1024.9
20260502105404 66 163 4.0 11.0 0.00 0.00 0.00 46 1025.0
20260502104503 66 140 3.0 9.0 0.00 0.00 0.00 47 1025.1
20260502103818 66 153 3.0 7.0 0.00 0.00 0.00 46 1025.2
20260502102703 66 122 3.0 7.0 0.00 0.00 0.00 45 1025.3
20260502101803 65 155 4.0 12.0 0.00 0.00 0.00 48 1025.5
20260502100903 66 149 3.0 13.0 0.00 0.00 0.00 43 1025.8
20260502090903 63 154 3.0 6.0 0.00 0.00 0.00 50 1026.5
20260502070903 60 291 1.0 3.0 0.00 0.00 0.00 59 1026.7
20260502070003 60 28 2.0 3.0 0.00 0.00 0.00 60 1026.8
20260502065404 59 49 2.0 3.0 0.00 0.00 0.00 59 1026.9
20260502064503 59 22 2.0 3.0 0.00 0.00 0.00 60 1026.8
20260502063603 59 24 2.0 4.0 0.00 0.00 0.00 62 1026.9
20260502062703 58 39 3.0 5.0 0.00 0.00 0.00 63 1026.8
20260502061803 57 30 3.0 8.0 0.00 0.00 0.00 65 1026.8
20260502060903 57 20 3.0 5.0 0.00 0.00 0.00 66 1026.7
20260502060003 56 19 4.0 8.0 0.00 0.00 0.00 67 1026.8
20260502055404 55 15 4.0 8.0 0.00 0.00 0.00 68 1026.8
20260502054503 55 16 4.0 7.0 0.00 0.00 0.00 69 1026.9
20260502053603 54 18 4.0 7.0 0.00 0.00 0.00 70 1026.8
20260502052919 54 14 4.0 7.0 0.00 0.00 0.00 71 1026.9
20260502051803 53 10 4.0 7.0 0.00 0.00 0.00 72 1026.7
20260502050903 52 12 4.0 7.0 0.00 0.00 0.00 73 1026.7
20260502050003 52 4 3.0 5.0 0.00 0.00 0.00 74 1026.6
20260502045403 51 7 3.0 5.0 0.00 0.00 0.00 75 1026.8
20260502044718 51 9 3.0 5.0 0.00 0.00 0.00 76 1026.7
20260502043603 50 348 2.0 5.0 0.00 0.00 0.00 77 1026.7
20260502042703 49 355 2.0 5.0 0.00 0.00 0.00 78 1026.7
20260502041803 49 352 1.0 4.0 0.00 0.00 0.00 78 1026.6